[[{"header":{"parameterUnit":"m.s-1","parameterCategory":1,"la1":30.2991,"la2":30.254,"lo1":-89.0895,"lo2":-89.0444,"dy":0.0017,"dx":0.0017,"nx":28,"ny":28,"refTime":"2024-08-02T21:00:00:Z","depth":0,"parameterNumber":2,"parameterNumberName":"U-component_of_WINDS"},"data":[0,0,0,0,0,0,0,0,0,0,0,0,0,0,0,0,0,0,0,0,0,0,0,0,0,0,0,0,0,0,0,0,0,0,0,0,0,0,0,0,0,0,0,0,0,0,0,0,0,0,0,0,0,0,0,0,0,0,0.146,0.1461,0,0.1512,0.1513,0.1513,0.1524,0.1524,0.1523,0.1523,0.1583,0.1585,0.1587,0,0,0,0,0,0,0,0,0,0,0,0,0,0.1378,0.1379,0.146,0.1461,0.1462,0.1512,0.1513,0.1514,0.1524,0.1524,0.1523,0.1523,0.1582,0.1584,0.1587,0,0,0,0,0,0,0,0,0,0,0,0,0,0.142,0.138,0.146,0.1473,0.1475,0.1512,0.1513,0.1514,0.1524,0.1524,0.1523,0.1523,0.1581,0.1584,0.1587,0.1618,0,0,0.1596,0.1597,0,0,0,0,0,0,0,0,0.1418,0.1423,0.147,0.1472,0.1474,0.1511,0.1506,0.1549,0.1524,0.1506,0.1523,0.1522,0.156,0.1564,0.1576,0.162,0.1623,0.1596,0.1598,0.1599,0.16,0,0,0,0,0,0,0,0.1415,0.1421,0.1481,0.1471,0.1473,0.1478,0.1484,0.1514,0.1536,0.1507,0.1508,0.1514,0.1561,0.1573,0.1577,0.1624,0.1596,0.1599,0.1601,0.1602,0.1699,0.17,0,0,0,0,0,0,0.1409,0.1418,0.148,0.1483,0.1443,0.148,0.1486,0.15,0.1535,0.154,0.1514,0.1514,0.1568,0.1574,0.1579,0.1619,0.1599,0.1602,0.1604,0.1698,0.1699,0.17,0,0,0,0,0,0,0.1407,0.1414,0.1477,0.1451,0.1459,0.1482,0.1498,0.1501,0.1513,0.1541,0.1545,0.1522,0.1568,0.1575,0.1608,0.1621,0.1604,0.1606,0.1697,0.1699,0.17,0.1698,0,0,0,0,0,0,0.1404,0.1413,0.1423,0.1451,0.1461,0.1503,0.1498,0.1503,0.1518,0.1518,0.1549,0.1554,0.1568,0.1604,0.1611,0.1625,0.1609,0.1696,0.1698,0.1699,0.1697,0.1699,0.1701,0,0,0,0,0,0.1401,0.1422,0.1424,0.1431,0.1473,0.1504,0.151,0.1523,0.1518,0.153,0.1548,0.1553,0.1618,0.1607,0.1615,0.163,0.1696,0.1697,0.1699,0.1696,0.1698,0.1701,0,0,0,0,0,0,0.1397,0.1425,0.1428,0.1457,0.1478,0.1505,0.152,0.1525,0.1549,0.1548,0.1567,0.1574,0.1606,0.1622,0.1608,0.1663,0.1657,0.1661,0.1652,0.1654,0.1656,0.1653,0.1611,0,0,0,0,0,0.1399,0.1419,0.1444,0.1468,0.1477,0.1497,0.1511,0.152,0.1542,0.1552,0.1572,0.1596,0.1622,0.1639,0.1664,0.1699,0.1708,0.1714,0.1716,0.1717,0.172,0.1742,0.1746,0.1706,0.1706,0.1706,0,0,0.1404,0.1422,0.1434,0.1467,0.1484,0.1507,0.1504,0.1528,0.1546,0.1556,0.1588,0.1604,0.1632,0.1666,0.1683,0.168,0.1733,0.1719,0.172,0.1723,0.1745,0.1748,0.1752,0.1707,0.1707,0.1707,0,0,0.1426,0.144,0.1463,0.1479,0.1504,0.1517,0.1523,0.155,0.156,0.1592,0.16,0.1623,0.1667,0.1687,0.1703,0.1733,0.174,0.1741,0.1752,0.1773,0.1776,0.1779,0.1792,0.1796,0.1744,0.1744,0.1744,0,0.143,0.1462,0.1474,0.1498,0.1513,0.1521,0.1545,0.1561,0.1594,0.1606,0.1602,0.1658,0.1678,0.1718,0.1725,0.1737,0.1746,0.1738,0.1774,0.1777,0.178,0.1793,0.1797,0.1745,0.1744,0.1744,0.1744,0,0.1467,0.149,0.1505,0.1535,0.1552,0.1575,0.1593,0.1609,0.1617,0.1631,0.1665,0.1689,0.172,0.173,0.1738,0.1772,0.177,0.177,0.1764,0.1784,0.1796,0.1801,0.1745,0.1745,0.1745,0.1745,0,0,0.1488,0.1523,0.1529,0.1543,0.1572,0.1591,0.1616,0.1644,0.1659,0.1682,0.1705,0.1743,0.1743,0.1761,0.1772,0.179,0.1815,0.1788,0.1789,0.1794,0.1857,0.1858,0.1863,0.1819,0.182,0.1821,0.1855,0,0.1514,0.1557,0.1569,0.1606,0.1629,0.1637,0.1659,0.1681,0.1695,0.1718,0.1735,0.1762,0.1759,0.177,0.1789,0.1808,0.1828,0.1806,0.1844,0.1845,0.1838,0.1869,0.187,0.1901,0.186,0.1861,0.1861,0,0.155,0.1572,0.1611,0.1638,0.1648,0.1667,0.1695,0.1716,0.1742,0.1751,0.1772,0.1781,0.1811,0.1802,0.1845,0.1829,0.1846,0.1858,0.186,0.1865,0.1855,0.1877,0.1911,0.1917,0.1869,0.1868,0.1867,0,0.1564,0.1603,0.1632,0.1643,0.1675,0.1689,0.1703,0.1728,0.1744,0.177,0.1781,0.181,0.1827,0.185,0.1869,0.186,0.1911,0.1903,0.1922,0.1921,0.1933,0.1932,0.1972,0.1941,0.1941,0.194,0.194,0,0.1593,0.1617,0.1638,0.1656,0.1684,0.1699,0.1727,0.1742,0.1764,0.1787,0.1797,0.1819,0.184,0.1866,0.188,0.1915,0.1922,0.1932,0.1936,0.1932,0.1931,0.1945,0.1944,0.1942,0.1941,0.1941,0.1941,0,0.1613,0.1628,0.166,0.1687,0.1694,0.1714,0.1738,0.1758,0.1772,0.1801,0.1809,0.1833,0.1864,0.1884,0.1924,0.1933,0.1972,0.1974,0.1963,0.1965,0.1983,0.1982,0.2034,0.2043,0.2004,0.2004,0.2004,0,0.1631,0.165,0.1678,0.1693,0.1707,0.1731,0.1748,0.1764,0.1781,0.1812,0.1829,0.186,0.1885,0.1935,0.1958,0.1989,0.1993,0.2009,0.1998,0.1994,0.1996,0.1995,0.1999,0.2012,0.2012,0.2012,0.2013,0,0.1662,0.1669,0.1692,0.1718,0.1737,0.1759,0.1781,0.1793,0.1813,0.1833,0.1864,0.1883,0.1924,0.1956,0.1989,0.2007,0.2014,0.2016,0.2022,0.2019,0.2012,0.2018,0.197,0.2015,0.2015,0.2014,0.2014,0.2014,0.1684,0.1701,0.1724,0.175,0.1768,0.1788,0.1808,0.1824,0.1849,0.1882,0.189,0.1923,0.195,0.1995,0.2013,0.2041,0.204,0.2048,0.2051,0.2053,0.2054,0.2006,0.2047,0.2047,0.2047,0.2047,0.2047,0,0.1717,0.1732,0.1756,0.1785,0.1806,0.1808,0.1833,0.1852,0.1879,0.1903,0.1928,0.1964,0.1995,0.202,0.2053,0.2071,0.2075,0.2079,0.2079,0.2084,0.2053,0.2045,0.2075,0.2075,0.2075,0.2075,0.2075,0.2075,0.1737,0.1768,0.1777,0.1817,0.1833,0.1863,0.1878,0.1898,0.1917,0.1956,0.1981,0.1996,0.2022,0.2056,0.2086,0.2093,0.2106,0.2109,0.2117,0.2088,0.2085,0.2083,0.2075,0.2111,0.2111,0.2146,0.2146,0.2146]},{"header":{"parameterUnit":"m.s-1","parameterCategory":1,"la1":30.2991,"la2":30.254,"lo1":-89.0895,"lo2":-89.0444,"dy":0.0017,"dx":0.0017,"nx":28,"ny":28,"refTime":"2024-08-02T21:00:00:Z","depth":0,"parameterNumber":3,"parameterNumberName":"V-component_of_WINDS"},"data":[0,0,0,0,0,0,0,0,0,0,0,0,0,0,0,0,0,0,0,0,0,0,0,0,0,0,0,0,0,0,0,0,0,0,0,0,0,0,0,0,0,0,0,0,0,0,0,0,0,0,0,0,0,0,0,0,0,0,0.5292,0.5292,0,0.5326,0.5326,0.5326,0.5325,0.5325,0.5324,0.5324,0.5357,0.5358,0.5359,0,0,0,0,0,0,0,0,0,0,0,0,0,0.5222,0.5223,0.5292,0.5292,0.5293,0.5325,0.5326,0.5326,0.5325,0.5325,0.5324,0.5324,0.5356,0.5358,0.536,0,0,0,0,0,0,0,0,0,0,0,0,0,0.5254,0.5224,0.5292,0.5296,0.5297,0.5325,0.5326,0.5327,0.5325,0.5325,0.5324,0.5323,0.5356,0.5358,0.536,0.5386,0,0,0.5366,0.5367,0,0,0,0,0,0,0,0,0.5252,0.5256,0.5295,0.5296,0.5297,0.532,0.5314,0.5346,0.5326,0.5314,0.5324,0.5323,0.5345,0.5348,0.5356,0.5387,0.5389,0.5366,0.5367,0.5368,0.5369,0,0,0,0,0,0,0,0.525,0.5255,0.5305,0.5295,0.5296,0.5295,0.5299,0.532,0.5333,0.5315,0.5315,0.5319,0.5346,0.5354,0.5357,0.5389,0.5366,0.5368,0.5369,0.537,0.544,0.544,0,0,0,0,0,0,0.5247,0.5253,0.5304,0.5306,0.5272,0.5297,0.5301,0.5313,0.5333,0.5335,0.532,0.5319,0.5351,0.5354,0.5358,0.5387,0.5368,0.537,0.5371,0.5439,0.544,0.5441,0,0,0,0,0,0,0.5246,0.5252,0.5303,0.528,0.5286,0.5299,0.5313,0.5315,0.5323,0.5337,0.5339,0.5326,0.5351,0.5355,0.5378,0.5388,0.5371,0.5373,0.5438,0.5439,0.544,0.5447,0,0,0,0,0,0,0.5244,0.5251,0.5262,0.528,0.5287,0.5324,0.5314,0.5316,0.5327,0.5326,0.5343,0.5345,0.535,0.5375,0.538,0.5391,0.5374,0.5437,0.5439,0.544,0.5446,0.5448,0.545,0,0,0,0,0,0.5241,0.5264,0.5263,0.5269,0.5302,0.5324,0.5328,0.5334,0.5328,0.5338,0.5346,0.5345,0.5386,0.5378,0.5383,0.5394,0.5437,0.5438,0.544,0.5445,0.5448,0.545,0,0,0,0,0,0,0.5248,0.5266,0.5266,0.5295,0.5308,0.5324,0.5338,0.5337,0.5353,0.5351,0.5357,0.5361,0.5383,0.5391,0.5381,0.5418,0.541,0.5413,0.5413,0.5415,0.5417,0.5415,0.5376,0,0,0,0,0,0.5252,0.527,0.5285,0.5309,0.5315,0.5325,0.5336,0.5338,0.5352,0.5358,0.5368,0.538,0.5396,0.5406,0.5422,0.5447,0.5449,0.5457,0.5459,0.5461,0.5463,0.5474,0.5477,0.5446,0.5446,0.5446,0,0,0.5263,0.5275,0.5286,0.531,0.5321,0.5337,0.533,0.5349,0.5361,0.5361,0.5382,0.539,0.5404,0.5428,0.5438,0.5435,0.5472,0.5463,0.5464,0.5465,0.5476,0.5479,0.5481,0.5447,0.5446,0.5446,0,0,0.5289,0.5301,0.5321,0.5331,0.5346,0.5352,0.5357,0.5373,0.5377,0.5399,0.5398,0.5412,0.544,0.5449,0.5457,0.5483,0.5481,0.5488,0.5498,0.5509,0.5511,0.5513,0.552,0.5523,0.549,0.549,0.549,0,0.53,0.5325,0.5331,0.5349,0.5358,0.5358,0.5377,0.5386,0.5406,0.5412,0.5407,0.544,0.545,0.5474,0.5479,0.5487,0.5491,0.5486,0.551,0.5513,0.5515,0.5521,0.5524,0.549,0.549,0.549,0.549,0,0.5336,0.5353,0.5367,0.5385,0.5396,0.5415,0.5421,0.5432,0.5433,0.5438,0.5459,0.547,0.5486,0.5492,0.5494,0.5516,0.5513,0.5509,0.5501,0.5518,0.5524,0.5527,0.5491,0.5491,0.5491,0.549,0,0,0.5369,0.5388,0.5392,0.5399,0.5415,0.5428,0.5445,0.546,0.5468,0.5481,0.5493,0.5515,0.5511,0.552,0.5523,0.5532,0.5548,0.5527,0.5528,0.5529,0.557,0.5571,0.5574,0.5548,0.5548,0.5549,0.5568,0,0.5395,0.5426,0.5429,0.5456,0.547,0.5469,0.5483,0.5493,0.5498,0.551,0.5515,0.5529,0.5525,0.5529,0.5539,0.5545,0.5556,0.5543,0.5558,0.5558,0.5553,0.5578,0.5581,0.5598,0.5571,0.5571,0.5572,0,0.5431,0.5443,0.5471,0.5481,0.5487,0.55,0.5513,0.5525,0.5535,0.5538,0.5547,0.5547,0.5562,0.5554,0.5573,0.5564,0.557,0.5574,0.5574,0.5575,0.5565,0.5578,0.5605,0.5607,0.5576,0.5575,0.5575,0,0.5449,0.5473,0.5491,0.5497,0.5511,0.5519,0.5525,0.5535,0.5543,0.5554,0.5558,0.5571,0.5577,0.5586,0.5589,0.5583,0.5608,0.56,0.5609,0.5609,0.5614,0.5614,0.564,0.562,0.562,0.562,0.562,0,0.5477,0.5493,0.5499,0.5511,0.5528,0.5531,0.5547,0.5553,0.5561,0.5572,0.5572,0.5582,0.5586,0.5596,0.5599,0.5613,0.5616,0.5618,0.5618,0.5617,0.5617,0.5621,0.5619,0.5621,0.562,0.562,0.562,0,0.55,0.5505,0.5525,0.5535,0.5538,0.555,0.5558,0.5568,0.5572,0.5586,0.5589,0.5595,0.5607,0.5611,0.5625,0.5627,0.5643,0.5643,0.5639,0.5639,0.5647,0.5646,0.5677,0.568,0.5658,0.5659,0.5659,0,0.5518,0.553,0.554,0.5548,0.5553,0.5565,0.5573,0.5576,0.5583,0.5594,0.5602,0.5614,0.5623,0.5642,0.5647,0.5657,0.5657,0.5666,0.5658,0.5656,0.5654,0.5653,0.5653,0.5668,0.5668,0.5668,0.5668,0,0.5546,0.5547,0.5559,0.5569,0.5578,0.5587,0.5596,0.5601,0.5605,0.5613,0.5625,0.5632,0.5646,0.5657,0.5667,0.5672,0.567,0.5671,0.5673,0.5672,0.5669,0.5669,0.5642,0.567,0.567,0.567,0.567,0.567,0.5566,0.5575,0.5583,0.5595,0.5601,0.5608,0.5617,0.5622,0.5632,0.5643,0.5644,0.5656,0.5663,0.5676,0.5681,0.569,0.5687,0.5691,0.5692,0.5692,0.5692,0.5668,0.5692,0.5692,0.5692,0.5692,0.5692,0,0.5593,0.5597,0.5608,0.5619,0.5627,0.5625,0.5633,0.564,0.5651,0.5658,0.5666,0.5678,0.5688,0.5693,0.5703,0.5708,0.5707,0.571,0.571,0.571,0.5695,0.5691,0.5711,0.5711,0.5711,0.5711,0.5711,0.5711,0.5608,0.5623,0.5624,0.5641,0.5646,0.5657,0.5662,0.5668,0.5673,0.5687,0.5695,0.5698,0.5703,0.5712,0.5721,0.5722,0.5724,0.5728,0.5728,0.5714,0.5712,0.571,0.5706,0.5728,0.5728,0.5742,0.5743,0.5743]}]]